Weather observations for the past three days for
Louisville, Bowman Field Airport
Imperial (Metric)
Date Time (edt) Wind (mph) Vis. (mi.) Weather Sky Cond. Temperature (ºF) Relative Humidity Wind Chill (°F) Heat Index (°F) Pressure Precipitation (in)
Air Dwpt 6 hour altimeter (in) sea level (mb) 1 hr 3 hr 6 hr
Max. Min.
16 18:53 S 9 10.00 Fair CLR 91 70 50% 97 29.95 1013.7
16 17:53 S 8 10.00 A Few Clouds FEW090 90 69.1 50% 95 29.96 1013.9
16 16:53 SE 9 10.00 Mostly Cloudy BKN060 BKN100 91.9 70 49% 98 29.97 1014.2
16 15:53 SE 10 G 17 10.00 Partly Cloudy SCT060 91.9 70 49% 98 29.98 1014.7
16 14:53 Calm 10.00 A Few Clouds FEW080 91 70 50% 97 30.01 1015.5
16 13:53 Calm 10.00 A Few Clouds FEW065 90 68 90 66 48% 94 30.03 1016.3
16 12:53 Vrbl 5 10.00 Partly Cloudy SCT060 88 68 52% 92 30.04 1016.6
16 11:53 Vrbl 6 10.00 Fair CLR 86 64.9 49% 88 30.04 1016.7
16 10:53 Calm 10.00 Fair CLR 80.1 62.1 54% 81 30.05 1017.0
16 09:53 SE 3 10.00 Fair CLR 75.9 57 52% 78 30.05 1017.1
16 08:53 SE 5 10.00 Fair CLR 71.1 55.9 59% 30.06 1017.2
16 07:53 E 6 10.00 Fair CLR 66 54 70 57.9 65% 30.04 1016.6
16 06:53 Calm 10.00 Fair CLR 61 54 78% 30.04 1016.7
16 05:53 Calm 10.00 Fair CLR 60.1 54 80% 30.03 1016.5
16 04:53 Calm 10.00 Fair CLR 61 52 72% 30.04 1016.6
16 03:53 Calm 10.00 Fair CLR 63 52 68% 30.03 1016.4
16 02:53 E 6 10.00 Fair CLR 68 51.1 55% 30.03 1016.4
16 01:53 E 7 10.00 Fair CLR 70 51.1 82 70 51% 30.03 1016.4
16 00:53 E 10 10.00 Fair CLR 71.1 51.1 49% 30.03 1016.5
15 23:53 E 9 10.00 Fair CLR 73 50 44% 30.04 1016.8
15 22:53 E 9 10.00 Fair CLR 73.9 51.1 45% 30.04 1016.6
15 21:53 E 8 10.00 Fair CLR 75.9 52 43% 78 30.03 1016.4
15 20:53 E 9 10.00 Fair CLR 79 53.1 41% 79 30.03 1016.4
15 19:53 E 9 10.00 Fair CLR 82.9 53.1 87.1 82.9 36% 82 30.04 1016.7
15 18:53 E 10 10.00 Fair CLR 84.9 54 35% 83 30.04 1016.7
15 17:53 E 10 10.00 Fair CLR 84.9 54 35% 83 30.05 1016.9
15 16:53 E 9 10.00 Fair CLR 86 54 33% 84 30.05 1017.0
15 15:53 E 13 10.00 Fair CLR 86 55 35% 84 30.06 1017.4
15 14:53 E 10 G 20 10.00 Fair CLR 84.9 55.9 37% 84 30.06 1017.4
15 13:53 E 13 G 20 10.00 Fair CLR 84 57 84 71.1 40% 83 30.07 1017.8
15 12:53 E 10 10.00 Fair CLR 82.9 61 48% 83 30.09 1018.3
15 11:53 NE 10 10.00 Fair CLR 81 61 51% 82 30.1 1018.7
15 10:53 NE 10 10.00 Fair CLR 79 60.1 52% 80 30.1 1018.6
15 09:53 E 12 G 22 10.00 Fair CLR 75.9 57.9 54% 78 30.1 1018.7
15 08:53 E 13 G 18 10.00 Fair CLR 73 60.1 64% 30.08 1018.2
15 07:53 NE 9 10.00 Fair CLR 71.1 60.1 72 68 68% 30.08 1018.1
15 06:53 NE 10 10.00 Fair CLR 69.1 60.1 73% 30.06 1017.2
15 05:53 NE 8 10.00 Fair CLR 70 60.1 71% 30.02 1016.1
15 04:53 NE 8 10.00 Fair CLR 71.1 61 71% 30.01 1015.5
15 03:53 NE 5 10.00 Fair CLR 71.1 60.1 68% 29.99 1015.1
15 02:53 N 3 10.00 Fair CLR 68 59 73% 29.98 1014.8
15 01:53 NW 3 10.00 Fair CLR 72 60.1 87.1 70 66% 29.98 1014.7
15 00:53 N 3 10.00 A Few Clouds FEW060 75 61 62% 77 29.99 1014.8
14 23:53 N 5 10.00 Fair CLR 77 63 62% 79 29.98 1014.6
14 22:53 N 6 10.00 Fair CLR 79 64 60% 81 29.97 1014.4
14 21:53 N 5 10.00 Fair CLR 82 64.9 56% 84 29.95 1013.4
14 20:53 Calm 10.00 A Few Clouds FEW055 84.9 66 53% 87 29.93 1012.8
14 18:53 N 9 10.00 Fair CLR 89.1 64.9 45% 91 29.91 1012.2
14 17:53 NW 3 10.00 Mostly Cloudy SCT050 BKN070 BKN110 86 69.1 57% 90 29.9 1011.8
14 16:53 W 5 10.00 Light Rain BKN050 OVC065 84.9 73 68% 92 29.91 1012.1 0.01 0.01
14 15:53 SW 3 10.00 A Few Clouds FEW055 87.1 69.1 55% 91 29.91 1012.2
14 14:53 Vrbl 5 10.00 Light Rain BKN055 BKN070 89.1 70 53% 94 29.92 1012.5
14 13:53 W 6 10.00 A Few Clouds FEW047 87.1 68 88 70 53% 91 29.92 1012.7
14 12:53 W 8 10.00 Light Rain CLR 86 66.9 53% 89 29.93 1012.8
14 11:53 SW 8 10.00 Light Rain CLR 82.9 64.9 55% 85 29.93 1013.0
14 10:53 SW 6 10.00 Fair CLR 80.1 64 58% 82 29.94 1013.3
14 09:53 S 5 10.00 Fair CLR 77 64 64% 79 29.96 1013.9
14 08:53 S 5 10.00 Fair CLR 73.9 62.1 67% 29.96 1013.9
14 07:53 S 3 10.00 Fair CLR 70 62.1 72 64.9 76% 29.96 1013.9
14 06:53 Calm 10.00 Fair CLR 68 60.1 76% 29.97 1014.2
14 05:53 Calm 10.00 Mostly Cloudy BKN080 66.9 59 76% 29.96 1014.1
14 04:53 W 3 10.00 Fair CLR 66.9 59 76% 29.95 1013.5
14 02:53 Calm 10.00 Fair CLR 70 59 68% 29.93 1013.0
14 01:53 S 3 10.00 Fair CLR 72 59 82.9 68 64% 29.95 1013.5
14 00:53 S 3 10.00 Mostly Cloudy BKN110 70 57.9 66% 29.97 1014.4
13 23:53 Calm 10.00 Fair CLR 69.1 57 66% 29.96 1014.0
13 22:53 Calm 10.00 Fair CLR 72 55.9 57% 29.94 1013.3
13 21:53 SW 3 10.00 Fair CLR 75 54 48% 78 29.94 1013.2
13 20:53 SW 5 10.00 Fair CLR 80.1 53.1 39% 80 29.93 1012.8
13 19:53 SW 9 10.00 Fair CLR 82.9 52 87.1 82.9 34% 82 29.93 1013.1
Date Time (edt) Wind (mph) Vis. (mi.) Weather Sky Cond. Air Dwpt Max. Min. Relative Humidity Wind Chill (°F) Heat Index (°F) altimeter (in) sea level (mb) 1 hr 3 hr 6 hr
6 hour
Temperature (ºF) Pressure Precipitation (in)